Location: Unspecified
(35.7250°N, 0.0000°E)
Time: 06:11:29
(UTC+00:00)

Courier 1B Rocket - Pass Details

Date: 16 August 2020
Orbit: 920 x 1202 km, 28.2° (Epoch: 21 September)

Event Time Altitude Azimuth Distance (km) Brightness Sun altitude
Exits shadow 04:20:43 16° 249° (WSW) 2,262 6.3 -12.0°
Maximum altitude 04:25:01 33° 194° (SSW) 1,561 5.8 -11.2°
Drops below altitude 10° 04:30:50 10° 133° (SE) 2,762 7.7 -10.1°
Sets 04:33:52 0° 124° (ESE) 3,758 8.5 -9.6°
